| time (UTC) | temp F | wind direction | speed MPH | gust MPH | rain 1hr in | rain 24hr in | rain mn in | humidity % | barometer mb |
| 20260906224036 | 64 | 270 | 2.0 | 9.0 | 0.00 | 0.24 | 0.24 | 90 | 1017.0 |
| 20260906223927 | 64 | 270 | 2.0 | 9.0 | 0.00 | 0.24 | 0.24 | 90 | 1017.0 |
| 20260906223529 | 64 | 228 | 4.0 | 9.0 | 0.00 | 0.24 | 0.24 | 91 | 1017.0 |
| 20260906222852 | 64 | 200 | 4.0 | 9.0 | 0.00 | 0.24 | 0.24 | 91 | 1017.1 |
| 20260906222515 | 64 | 226 | 4.0 | 9.0 | 0.00 | 0.24 | 0.24 | 91 | 1017.1 |
| 20260906222335 | 64 | 0 | 0.0 | 6.0 | 0.00 | 0.24 | 0.24 | 91 | 1017.1 |
| 20260906222008 | 64 | 224 | 3.0 | 6.0 | 0.00 | 0.24 | 0.24 | 91 | 1016.9 |
| 20260906221818 | 64 | 175 | 3.0 | 3.0 | 0.00 | 0.24 | 0.24 | 92 | 1017.0 |
| 20260906221501 | 64 | 0 | 0.0 | 10.0 | 0.00 | 0.24 | 0.24 | 92 | 1017.0 |
| 20260906221301 | 64 | 0 | 0.0 | 10.0 | 0.00 | 0.24 | 0.24 | 92 | 1017.0 |
| 20260906220954 | 64 | 191 | 5.0 | 10.0 | 0.00 | 0.24 | 0.24 | 93 | 1017.0 |
| 20260906220744 | 64 | 273 | 2.0 | 10.0 | 0.00 | 0.24 | 0.24 | 93 | 1017.0 |
| 20260906220447 | 64 | 273 | 2.0 | 10.0 | 0.00 | 0.24 | 0.24 | 93 | 1017.0 |
| 20260906220227 | 64 | 243 | 7.0 | 10.0 | 0.00 | 0.24 | 0.24 | 94 | 1017.1 |
| 20260906215940 | 63 | 243 | 8.0 | 10.0 | 0.00 | 0.24 | 0.24 | 94 | 1017.1 |
| 20260906215710 | 63 | 198 | 5.0 | 10.0 | 0.00 | 0.24 | 0.24 | 94 | 1017.0 |
| 20260906215433 | 63 | 259 | 2.0 | 10.0 | 0.00 | 0.24 | 0.24 | 95 | 1017.1 |
| 20260906215153 | 63 | 232 | 4.0 | 10.0 | 0.00 | 0.24 | 0.24 | 95 | 1017.0 |
| 20260906214926 | 62 | 270 | 3.0 | 10.0 | 0.00 | 0.24 | 0.24 | 95 | 1017.0 |
| 20260906214636 | 62 | 218 | 6.0 | 10.0 | 0.00 | 0.24 | 0.24 | 95 | 1017.0 |
| 20260906214419 | 62 | 221 | 1.0 | 10.0 | 0.00 | 0.24 | 0.24 | 96 | 1017.0 |
| 20260906214119 | 62 | 207 | 5.0 | 10.0 | 0.00 | 0.24 | 0.24 | 96 | 1017.0 |
| 20260906213912 | 62 | 207 | 10.0 | 10.0 | 0.00 | 0.24 | 0.24 | 96 | 1017.0 |
| 20260906213602 | 62 | 187 | 5.0 | 8.0 | 0.00 | 0.24 | 0.24 | 96 | 1016.8 |
| 20260906213405 | 61 | 201 | 3.0 | 9.0 | 0.00 | 0.24 | 0.24 | 96 | 1016.8 |
| 20260906213045 | 61 | 218 | 3.0 | 9.0 | 0.00 | 0.24 | 0.24 | 96 | 1016.8 |
| 20260906212858 | 61 | 218 | 5.0 | 9.0 | 0.00 | 0.24 | 0.24 | 96 | 1016.8 |
| 20260906212528 | 61 | 219 | 3.0 | 9.0 | 0.00 | 0.24 | 0.24 | 97 | 1016.8 |
| 20260906212351 | 61 | 219 | 3.0 | 9.0 | 0.00 | 0.24 | 0.24 | 97 | 1016.8 |
| 20260906212011 | 61 | 191 | 3.0 | 9.0 | 0.00 | 0.24 | 0.24 | 97 | 1016.8 |
| 20260906211845 | 61 | 212 | 4.0 | 9.0 | 0.00 | 0.24 | 0.24 | 98 | 1016.7 |
| 20260906211454 | 61 | 205 | 4.0 | 9.0 | 0.00 | 0.24 | 0.24 | 98 | 1016.7 |
| 20260906211340 | 61 | 194 | 8.0 | 9.0 | 0.00 | 0.24 | 0.24 | 98 | 1016.7 |
| 20260906210937 | 61 | 190 | 1.0 | 8.0 | 0.00 | 0.24 | 0.24 | 99 | 1016.7 |
| 20260906210831 | 61 | 190 | 1.0 | 8.0 | 0.00 | 0.24 | 0.24 | 99 | 1016.7 |
| 20260906210420 | 60 | 231 | 2.0 | 5.0 | 0.00 | 0.24 | 0.24 | 99 | 1016.6 |
| 20260906210323 | 60 | 182 | 3.0 | 3.0 | 0.00 | 0.24 | 0.24 | 99 | 1016.6 |
| 20260906205903 | 60 | 240 | 3.0 | 9.0 | 0.00 | 0.24 | 0.24 | 99 | 1016.6 |
| 20260906205816 | 60 | 222 | 6.0 | 9.0 | 0.00 | 0.24 | 0.24 | 99 | 1016.6 |
| 20260906205346 | 60 | 212 | 5.0 | 9.0 | 0.00 | 0.24 | 0.24 | 100 | 1016.6 |
| 20260906205309 | 60 | 0 | 2.0 | 9.0 | 0.00 | 0.24 | 0.24 | 100 | 1016.5 |
| 20260906204829 | 60 | 208 | 3.0 | 9.0 | 0.00 | 0.24 | 0.24 | 100 | 1016.6 |
| 20260906204802 | 60 | 203 | 7.0 | 9.0 | 0.00 | 0.24 | 0.24 | 100 | 1016.6 |
| 20260906204312 | 60 | 0 | 0.0 | 8.0 | 0.00 | 0.24 | 0.24 | 100 | 1016.5 |
| 20260906204255 | 60 | 189 | 3.0 | 8.0 | 0.00 | 0.24 | 0.24 | 100 | 1016.5 |
| 20260906203748 | 60 | 215 | 4.0 | 8.0 | 0.00 | 0.24 | 0.24 | 100 | 1016.5 |
| 20260906203238 | 60 | 224 | 7.0 | 10.0 | 0.00 | 0.24 | 0.24 | 100 | 1016.6 |
| 20260906202721 | 59 | 257 | 3.0 | 10.0 | 0.00 | 0.24 | 0.24 | 100 | 1016.6 |
| 20260906202227 | 59 | 225 | 6.0 | 10.0 | 0.00 | 0.24 | 0.24 | 100 | 1016.5 |
| 20260906202204 | 60 | 225 | 5.0 | 10.0 | 0.00 | 0.24 | 0.24 | 100 | 1016.5 |
| 20260906201720 | 60 | 205 | 6.0 | 8.0 | 0.00 | 0.24 | 0.24 | 100 | 1016.6 |
| 20260906201647 | 59 | 205 | 7.0 | 8.0 | 0.00 | 0.24 | 0.24 | 100 | 1016.6 |
| 20260906201213 | 60 | 173 | 4.0 | 8.0 | 0.00 | 0.24 | 0.24 | 100 | 1016.5 |
| 20260906201130 | 60 | 173 | 4.0 | 8.0 | 0.00 | 0.24 | 0.24 | 100 | 1016.6 |
| 20260906200706 | 60 | 219 | 5.0 | 8.0 | 0.00 | 0.24 | 0.24 | 100 | 1016.5 |
| 20260906200613 | 60 | 219 | 5.0 | 8.0 | 0.00 | 0.24 | 0.24 | 100 | 1016.5 |
| 20260906200159 | 60 | 259 | 2.0 | 8.0 | 0.00 | 0.24 | 0.24 | 100 | 1016.4 |
| 20260906200058 | 60 | 259 | 1.0 | 8.0 | 0.00 | 0.24 | 0.24 | 100 | 1016.4 |
| 20260906195652 | 60 | 233 | 4.0 | 8.0 | 0.00 | 0.24 | 0.24 | 100 | 1016.4 |
| 20260906195539 | 60 | 233 | 7.0 | 8.0 | 0.00 | 0.24 | 0.24 | 100 | 1016.4 |
| 20260906195145 | 60 | 193 | 5.0 | 6.0 | 0.00 | 0.24 | 0.24 | 100 | 1016.5 |
| 20260906195022 | 60 | 193 | 3.0 | 6.0 | 0.00 | 0.24 | 0.24 | 100 | 1016.5 |
| 20260906194638 | 60 | 217 | 2.0 | 5.0 | 0.00 | 0.24 | 0.24 | 100 | 1016.4 |
| 20260906194505 | 60 | 217 | 2.0 | 8.0 | 0.00 | 0.24 | 0.24 | 100 | 1016.3 |
| 20260906194131 | 60 | 0 | 0.0 | 8.0 | 0.00 | 0.24 | 0.24 | 100 | 1016.4 |
| 20260906193948 | 59 | 0 | 0.0 | 8.0 | 0.00 | 0.24 | 0.24 | 100 | 1016.4 |
| 20260906193624 | 59 | 240 | 3.0 | 8.0 | 0.00 | 0.24 | 0.24 | 100 | 1016.3 |
| 20260906193431 | 59 | 240 | 3.0 | 8.0 | 0.00 | 0.24 | 0.24 | 100 | 1016.3 |
| 20260906193117 | 59 | 214 | 3.0 | 8.0 | 0.00 | 0.24 | 0.24 | 100 | 1016.3 |
| 20260906192914 | 59 | 214 | 7.0 | 8.0 | 0.00 | 0.24 | 0.24 | 100 | 1016.3 |
| 20260906192610 | 59 | 190 | 3.0 | 6.0 | 0.00 | 0.24 | 0.24 | 100 | 1016.3 |
| 20260906192358 | 59 | 0 | 0.0 | 4.0 | 0.00 | 0.24 | 0.24 | 100 | 1016.3 |
| 20260906192104 | 59 | 228 | 2.0 | 6.0 | 0.00 | 0.24 | 0.24 | 100 | 1016.3 |
| 20260906191840 | 59 | 228 | 3.0 | 6.0 | 0.00 | 0.24 | 0.24 | 100 | 1016.3 |
| 20260906191323 | 59 | 0 | 0.0 | 6.0 | 0.00 | 0.24 | 0.24 | 100 | 1016.3 |
| 20260906191049 | 59 | 177 | 2.0 | 6.0 | 0.00 | 0.24 | 0.24 | 100 | 1016.3 |
| 20260906190806 | 58 | 177 | 3.0 | 6.0 | 0.00 | 0.24 | 0.24 | 100 | 1016.3 |
| 20260906190542 | 58 | 203 | 3.0 | 6.0 | 0.00 | 0.24 | 0.24 | 100 | 1016.3 |
| 20260906190249 | 58 | 0 | 0.0 | 5.0 | 0.00 | 0.24 | 0.24 | 100 | 1016.3 |
| 20260906190035 | 58 | 0 | 0.0 | 5.0 | 0.00 | 0.24 | 0.24 | 100 | 1016.3 |
| 20260906185732 | 58 | 207 | 2.0 | 5.0 | 0.00 | 0.24 | 0.24 | 100 | 1016.4 |
| 20260906185528 | 58 | 0 | 0.0 | 0.0 | 0.00 | 0.24 | 0.24 | 100 | 1016.4 |
| 20260906185215 | 58 | 0 | 0.0 | 0.0 | 0.00 | 0.24 | 0.24 | 100 | 1016.4 |
| 20260906185021 | 58 | 0 | 0.0 | 0.0 | 0.00 | 0.24 | 0.24 | 100 | 1016.4 |
| 20260906184658 | 58 | 0 | 0.0 | 0.0 | 0.00 | 0.24 | 0.24 | 100 | 1016.4 |
| 20260906184514 | 58 | 0 | 0.0 | 0.0 | 0.00 | 0.24 | 0.24 | 100 | 1016.4 |
| 20260906184141 | 58 | 0 | 0.0 | 0.0 | 0.00 | 0.24 | 0.24 | 100 | 1016.4 |
| 20260906184007 | 58 | 0 | 0.0 | 0.0 | 0.00 | 0.24 | 0.24 | 100 | 1016.4 |
| 20260906183500 | 58 | 0 | 0.0 | 2.0 | 0.00 | 0.24 | 0.24 | 100 | 1016.3 |
| 20260906183107 | 58 | 0 | 0.0 | 2.0 | 0.00 | 0.24 | 0.24 | 100 | 1016.3 |
| 20260906182953 | 58 | 0 | 0.0 | 2.0 | 0.00 | 0.24 | 0.24 | 100 | 1016.3 |
| 20260906182550 | 58 | 0 | 0.0 | 2.0 | 0.00 | 0.24 | 0.24 | 100 | 1016.3 |
| 20260906182446 | 58 | 0 | 0.0 | 2.0 | 0.00 | 0.24 | 0.24 | 100 | 1016.3 |
| 20260906182033 | 58 | 210 | 1.0 | 2.0 | 0.00 | 0.24 | 0.24 | 100 | 1016.2 |
| 20260906181939 | 58 | 210 | 1.0 | 2.0 | 0.00 | 0.24 | 0.24 | 100 | 1016.2 |
| 20260906181516 | 58 | 0 | 0.0 | 0.0 | 0.00 | 0.24 | 0.24 | 100 | 1016.2 |
| 20260906181432 | 58 | 0 | 0.0 | 0.0 | 0.00 | 0.24 | 0.24 | 100 | 1016.2 |
| 20260906180959 | 58 | 0 | 0.0 | 0.0 | 0.00 | 0.24 | 0.24 | 100 | 1016.1 |
| 20260906180925 | 58 | 0 | 0.0 | 0.0 | 0.00 | 0.24 | 0.24 | 100 | 1016.2 |
| 20260906180442 | 58 | 0 | 0.0 | 0.0 | 0.00 | 0.24 | 0.24 | 100 | 1016.2 |
| 20260906180418 | 58 | 0 | 0.0 | 0.0 | 0.00 | 0.24 | 0.24 | 100 | 1016.2 |
| 20260906175925 | 58 | 0 | 0.0 | 0.0 | 0.00 | 0.24 | 0.24 | 100 | 1016.3 |
| 20260906175911 | 58 | 0 | 0.0 | 0.0 | 0.00 | 0.24 | 0.24 | 100 | 1016.3 |
| 20260906175408 | 57 | 0 | 0.0 | 0.0 | 0.00 | 0.24 | 0.24 | 100 | 1016.2 |
| 20260906175404 | 57 | 0 | 0.0 | 0.0 | 0.00 | 0.24 | 0.24 | 100 | 1016.2 |
| 20260906174857 | 57 | 0 | 0.0 | 0.0 | 0.00 | 0.24 | 0.24 | 100 | 1016.2 |
| 20260906174851 | 57 | 0 | 0.0 | 0.0 | 0.00 | 0.24 | 0.24 | 100 | 1016.2 |
| 20260906174350 | 57 | 0 | 0.0 | 0.0 | 0.00 | 0.24 | 0.24 | 100 | 1016.2 |
| 20260906174334 | 57 | 0 | 0.0 | 0.0 | 0.00 | 0.24 | 0.24 | 100 | 1016.2 |
| 20260906173843 | 57 | 0 | 0.0 | 0.0 | 0.00 | 0.24 | 0.24 | 100 | 1016.1 |
| 20260906173817 | 57 | 0 | 0.0 | 0.0 | 0.00 | 0.24 | 0.24 | 100 | 1016.2 |
| 20260906173336 | 57 | 0 | 0.0 | 0.0 | 0.00 | 0.24 | 0.24 | 100 | 1016.2 |
| 20260906173300 | 57 | 0 | 0.0 | 0.0 | 0.00 | 0.24 | 0.24 | 100 | 1016.2 |
| 20260906172830 | 57 | 0 | 0.0 | 0.0 | 0.00 | 0.24 | 0.24 | 100 | 1016.1 |
| 20260906172743 | 57 | 0 | 0.0 | 0.0 | 0.00 | 0.24 | 0.24 | 100 | 1016.1 |
| 20260906172322 | 58 | 0 | 0.0 | 0.0 | 0.00 | 0.24 | 0.24 | 100 | 1016.1 |
| 20260906172226 | 58 | 0 | 0.0 | 0.0 | 0.00 | 0.24 | 0.24 | 100 | 1016.2 |
| 20260906171815 | 58 | 0 | 0.0 | 0.0 | 0.00 | 0.24 | 0.24 | 100 | 1016.1 |
| 20260906171709 | 58 | 0 | 0.0 | 0.0 | 0.00 | 0.24 | 0.24 | 100 | 1016.1 |
| 20260906171308 | 58 | 0 | 0.0 | 0.0 | 0.00 | 0.24 | 0.24 | 100 | 1016.0 |
| 20260906171152 | 58 | 0 | 0.0 | 0.0 | 0.00 | 0.24 | 0.24 | 100 | 1016.0 |
| 20260906170801 | 58 | 0 | 0.0 | 0.0 | 0.00 | 0.24 | 0.24 | 100 | 1016.1 |
| 20260906170635 | 58 | 0 | 0.0 | 0.0 | 0.00 | 0.24 | 0.24 | 100 | 1016.0 |
| 20260906170117 | 58 | 0 | 0.0 | 0.0 | 0.00 | 0.24 | 0.24 | 100 | 1016.0 |
| 20260906165747 | 58 | 0 | 0.0 | 0.0 | 0.00 | 0.24 | 0.24 | 100 | 1016.0 |
| 20260906165601 | 58 | 0 | 0.0 | 0.0 | 0.00 | 0.24 | 0.24 | 100 | 1016.0 |
| 20260906165240 | 58 | 0 | 0.0 | 0.0 | 0.00 | 0.24 | 0.24 | 100 | 1015.9 |
| 20260906165043 | 58 | 0 | 0.0 | 0.0 | 0.00 | 0.24 | 0.24 | 100 | 1016.0 |
| 20260906164527 | 58 | 0 | 0.0 | 0.0 | 0.01 | 0.24 | 0.24 | 100 | 1015.9 |
| 20260906164226 | 57 | 0 | 0.0 | 0.0 | 0.01 | 0.24 | 0.24 | 100 | 1015.9 |
| 20260906164009 | 57 | 0 | 0.0 | 0.0 | 0.01 | 0.24 | 0.24 | 100 | 1015.9 |
| 20260906163719 | 57 | 0 | 0.0 | 0.0 | 0.02 | 0.24 | 0.24 | 100 | 1015.8 |
| 20260906163452 | 57 | 0 | 0.0 | 0.0 | 0.02 | 0.24 | 0.24 | 100 | 1015.8 |
| 20260906163211 | 57 | 0 | 0.0 | 0.0 | 0.02 | 0.24 | 0.24 | 100 | 1015.8 |
| 20260906162935 | 57 | 0 | 0.0 | 0.0 | 0.02 | 0.24 | 0.24 | 100 | 1015.7 |
| 20260906162705 | 57 | 0 | 0.0 | 0.0 | 0.02 | 0.24 | 0.24 | 100 | 1015.7 |
| 20260906162418 | 57 | 0 | 0.0 | 0.0 | 0.02 | 0.24 | 0.24 | 100 | 1015.7 |
| 20260906161901 | 57 | 0 | 0.0 | 0.0 | 0.02 | 0.24 | 0.24 | 100 | 1015.7 |
| 20260906161650 | 57 | 0 | 0.0 | 0.0 | 0.02 | 0.24 | 0.24 | 100 | 1015.7 |
| 20260906161345 | 57 | 0 | 0.0 | 0.0 | 0.02 | 0.24 | 0.24 | 100 | 1015.7 |
| 20260906161144 | 57 | 0 | 0.0 | 0.0 | 0.02 | 0.24 | 0.24 | 100 | 1015.7 |
| 20260906160636 | 57 | 0 | 0.0 | 0.0 | 0.02 | 0.24 | 0.24 | 100 | 1015.5 |
| 20260906160311 | 57 | 0 | 0.0 | 0.0 | 0.02 | 0.24 | 0.24 | 100 | 1015.5 |
| 20260906160130 | 57 | 0 | 0.0 | 0.0 | 0.02 | 0.24 | 0.24 | 100 | 1015.4 |
| 20260906155753 | 56 | 0 | 0.0 | 0.0 | 0.03 | 0.24 | 0.24 | 100 | 1015.4 |
| 20260906155622 | 56 | 0 | 0.0 | 0.0 | 0.03 | 0.24 | 0.24 | 100 | 1015.4 |
| 20260906155236 | 56 | 0 | 0.0 | 0.0 | 0.03 | 0.24 | 0.24 | 100 | 1015.4 |
| 20260906155115 | 56 | 0 | 0.0 | 0.0 | 0.03 | 0.24 | 0.24 | 100 | 1015.4 |
| 20260906154719 | 56 | 0 | 0.0 | 0.0 | 0.02 | 0.24 | 0.24 | 100 | 1015.3 |
| 20260906154608 | 56 | 0 | 0.0 | 0.0 | 0.02 | 0.24 | 0.24 | 100 | 1015.4 |
| 20260906154204 | 56 | 0 | 0.0 | 0.0 | 0.02 | 0.24 | 0.24 | 100 | 1015.3 |
| 20260906154101 | 56 | 0 | 0.0 | 0.0 | 0.02 | 0.23 | 0.24 | 100 | 1015.4 |
| 20260906153645 | 56 | 0 | 0.0 | 0.0 | 0.01 | 0.22 | 0.22 | 100 | 1015.4 |
| 20260906153554 | 56 | 0 | 0.0 | 0.0 | 0.01 | 0.22 | 0.22 | 100 | 1015.4 |
| 20260906153129 | 56 | 0 | 0.0 | 0.0 | 0.01 | 0.22 | 0.22 | 100 | 1015.4 |
| 20260906153047 | 56 | 0 | 0.0 | 0.0 | 0.01 | 0.22 | 0.22 | 100 | 1015.4 |
| 20260906152611 | 56 | 0 | 0.0 | 0.0 | 0.02 | 0.22 | 0.22 | 100 | 1015.4 |
| 20260906152540 | 56 | 0 | 0.0 | 0.0 | 0.02 | 0.22 | 0.22 | 100 | 1015.4 |
| 20260906152054 | 56 | 0 | 0.0 | 0.0 | 0.02 | 0.22 | 0.22 | 100 | 1015.3 |
| 20260906152033 | 56 | 0 | 0.0 | 0.0 | 0.02 | 0.22 | 0.22 | 100 | 1015.3 |
| 20260906151526 | 56 | 0 | 0.0 | 0.0 | 0.02 | 0.22 | 0.22 | 100 | 1015.3 |
| 20260906151019 | 55 | 0 | 0.0 | 0.0 | 0.02 | 0.22 | 0.22 | 100 | 1015.3 |
| 20260906150503 | 55 | 0 | 0.0 | 0.0 | 0.03 | 0.22 | 0.22 | 100 | 1015.4 |
| 20260906150005 | 55 | 0 | 0.0 | 0.0 | 0.03 | 0.22 | 0.22 | 100 | 1015.2 |
| 20260906145946 | 55 | 0 | 0.0 | 0.0 | 0.03 | 0.22 | 0.22 | 100 | 1015.2 |
| 20260906145459 | 55 | 0 | 0.0 | 0.0 | 0.02 | 0.22 | 0.22 | 99 | 1015.1 |
| 20260906145429 | 55 | 0 | 0.0 | 0.0 | 0.02 | 0.22 | 0.22 | 100 | 1015.1 |
| 20260906144912 | 55 | 0 | 0.0 | 0.0 | 0.02 | 0.21 | 0.21 | 100 | 1015.1 |
| 20260906144444 | 55 | 0 | 0.0 | 0.0 | 0.04 | 0.21 | 0.21 | 100 | 1015.1 |
| 20260906144355 | 55 | 0 | 0.0 | 0.0 | 0.04 | 0.21 | 0.21 | 100 | 1015.1 |
| 20260906143937 | 55 | 0 | 0.0 | 0.0 | 0.04 | 0.21 | 0.21 | 100 | 1015.1 |
| 20260906143838 | 55 | 0 | 0.0 | 0.0 | 0.04 | 0.21 | 0.21 | 100 | 1015.1 |
| 20260906143430 | 55 | 0 | 0.0 | 0.0 | 0.08 | 0.21 | 0.21 | 100 | 1015.0 |
| 20260906143321 | 55 | 0 | 0.0 | 0.0 | 0.08 | 0.21 | 0.21 | 100 | 1015.0 |
| 20260906142924 | 55 | 0 | 0.0 | 0.0 | 0.08 | 0.21 | 0.21 | 100 | 1014.9 |
| 20260906142804 | 55 | 0 | 0.0 | 0.0 | 0.09 | 0.21 | 0.21 | 100 | 1014.9 |
| 20260906142416 | 55 | 0 | 0.0 | 0.0 | 0.09 | 0.20 | 0.20 | 100 | 1014.9 |
| 20260906142247 | 55 | 0 | 0.0 | 0.0 | 0.09 | 0.20 | 0.20 | 100 | 1014.8 |
| 20260906141911 | 55 | 0 | 0.0 | 0.0 | 0.09 | 0.20 | 0.20 | 100 | 1014.9 |
| 20260906141730 | 55 | 0 | 0.0 | 0.0 | 0.10 | 0.20 | 0.20 | 100 | 1014.8 |
| 20260906141402 | 55 | 0 | 0.0 | 0.0 | 0.10 | 0.20 | 0.20 | 100 | 1014.9 |
| 20260906141213 | 55 | 0 | 0.0 | 0.0 | 0.10 | 0.20 | 0.20 | 100 | 1014.8 |
| 20260906140855 | 55 | 0 | 0.0 | 0.0 | 0.10 | 0.20 | 0.20 | 100 | 1014.8 |
| 20260906140656 | 55 | 0 | 0.0 | 0.0 | 0.09 | 0.20 | 0.20 | 100 | 1014.8 |
| 20260906140348 | 55 | 0 | 0.0 | 0.0 | 0.09 | 0.19 | 0.20 | 100 | 1014.8 |
| 20260906140139 | 55 | 0 | 0.0 | 0.0 | 0.09 | 0.19 | 0.19 | 100 | 1014.7 |
| 20260906135622 | 55 | 0 | 0.0 | 7.0 | 0.09 | 0.19 | 0.19 | 100 | 1014.7 |
| 20260906135334 | 55 | 0 | 0.0 | 7.0 | 0.09 | 0.19 | 0.19 | 100 | 1014.8 |
| 20260906135105 | 55 | 0 | 0.0 | 7.0 | 0.09 | 0.19 | 0.19 | 100 | 1014.8 |
| 20260906134827 | 55 | 0 | 0.0 | 7.0 | 0.09 | 0.19 | 0.19 | 100 | 1014.8 |
| 20260906134548 | 55 | 0 | 0.0 | 7.0 | 0.07 | 0.18 | 0.18 | 100 | 1014.9 |
| 20260906134320 | 55 | 0 | 0.0 | 7.0 | 0.07 | 0.18 | 0.18 | 100 | 1014.9 |
| 20260906134031 | 55 | 56 | 3.0 | 7.0 | 0.07 | 0.18 | 0.18 | 100 | 1014.9 |
| 20260906133813 | 55 | 56 | 1.0 | 3.0 | 0.07 | 0.17 | 0.17 | 100 | 1015.1 |
| 20260906133516 | 55 | 39 | 0.0 | 1.0 | 0.04 | 0.16 | 0.16 | 100 | 1015.1 |
| 20260906133306 | 55 | 0 | 0.0 | 0.0 | 0.04 | 0.14 | 0.14 | 100 | 1015.0 |
| 20260906132957 | 55 | 0 | 0.0 | 0.0 | 0.04 | 0.13 | 0.13 | 100 | 1015.0 |
| 20260906132800 | 55 | 0 | 0.0 | 0.0 | 0.05 | 0.13 | 0.13 | 100 | 1015.0 |
| 20260906132440 | 55 | 0 | 0.0 | 0.0 | 0.05 | 0.12 | 0.13 | 100 | 1015.0 |
| 20260906132252 | 55 | 0 | 0.0 | 0.0 | 0.05 | 0.12 | 0.12 | 100 | 1015.0 |
| 20260906131923 | 55 | 0 | 0.0 | 0.0 | 0.05 | 0.11 | 0.12 | 100 | 1014.9 |
| 20260906131745 | 55 | 0 | 0.0 | 0.0 | 0.10 | 0.11 | 0.11 | 100 | 1014.9 |
| 20260906131406 | 55 | 0 | 0.0 | 0.0 | 0.10 | 0.10 | 0.10 | 100 | 1014.8 |
| 20260906130849 | 55 | 0 | 0.0 | 0.0 | 0.10 | 0.10 | 0.10 | 100 | 1014.6 |
| 20260906130731 | 55 | 0 | 0.0 | 0.0 | 0.10 | 0.10 | 0.10 | 100 | 1014.6 |
| 20260906130332 | 55 | 0 | 0.0 | 0.0 | 0.10 | 0.10 | 0.10 | 100 | 1014.6 |
| 20260906130224 | 55 | 0 | 0.0 | 0.0 | 0.10 | 0.10 | 0.10 | 100 | 1014.5 |
| 20260906125815 | 55 | 0 | 0.0 | 0.0 | 0.10 | 0.10 | 0.10 | 100 | 1014.5 |
| 20260906125717 | 55 | 0 | 0.0 | 0.0 | 0.10 | 0.10 | 0.10 | 100 | 1014.5 |
| 20260906125258 | 55 | 0 | 0.0 | 0.0 | 0.10 | 0.10 | 0.10 | 100 | 1014.5 |
| 20260906125210 | 55 | 0 | 0.0 | 0.0 | 0.10 | 0.10 | 0.10 | 100 | 1014.5 |
| 20260906124741 | 55 | 0 | 0.0 | 0.0 | 0.10 | 0.10 | 0.10 | 100 | 1014.5 |
| 20260906124703 | 55 | 0 | 0.0 | 0.0 | 0.10 | 0.10 | 0.10 | 100 | 1014.5 |
| 20260906124224 | 55 | 0 | 0.0 | 0.0 | 0.10 | 0.10 | 0.10 | 100 | 1014.5 |
| 20260906124156 | 55 | 0 | 0.0 | 0.0 | 0.10 | 0.10 | 0.10 | 100 | 1014.5 |
| 20260906123708 | 55 | 0 | 0.0 | 0.0 | 0.09 | 0.09 | 0.09 | 100 | 1014.5 |
| 20260906123649 | 55 | 0 | 0.0 | 0.0 | 0.09 | 0.09 | 0.09 | 100 | 1014.5 |
| 20260906123150 | 55 | 0 | 0.0 | 2.0 | 0.09 | 0.09 | 0.09 | 100 | 1014.6 |
| 20260906123142 | 55 | 0 | 0.0 | 2.0 | 0.09 | 0.09 | 0.09 | 100 | 1014.6 |
| 20260906122633 | 55 | 0 | 0.0 | 2.0 | 0.06 | 0.09 | 0.09 | 100 | 1014.5 |
| 20260906122129 | 55 | 0 | 0.0 | 2.0 | 0.06 | 0.07 | 0.07 | 100 | 1014.5 |
| 20260906122116 | 55 | 0 | 0.0 | 2.0 | 0.06 | 0.07 | 0.07 | 100 | 1014.5 |
| 20260906121621 | 55 | 0 | 0.0 | 0.0 | 0.00 | 0.04 | 0.04 | 100 | 1014.6 |
| 20260906121600 | 55 | 0 | 0.0 | 0.0 | 0.00 | 0.03 | 0.04 | 100 | 1014.6 |
| 20260906121114 | 55 | 0 | 0.0 | 0.0 | 0.00 | 0.01 | 0.01 | 100 | 1014.6 |
| 20260906121042 | 55 | 0 | 0.0 | 0.0 | 0.00 | 0.00 | 0.00 | 100 | 1014.6 |
| 20260906120607 | 55 | 0 | 0.0 | 0.0 | 0.00 | 0.08 | 0.00 | 100 | 1014.6 |
| 20260906120525 | 55 | 0 | 0.0 | 0.0 | 0.00 | 0.08 | 0.00 | 100 | 1014.5 |
| 20260906120100 | 55 | 0 | 0.0 | 0.0 | 0.00 | 0.08 | 0.00 | 100 | 1014.5 |
| 20260906120008 | 55 | 0 | 0.0 | 0.0 | 0.00 | 0.08 | 0.00 | 100 | 1014.5 |
| 20260906115553 | 55 | 0 | 0.0 | 0.0 | 0.00 | 0.08 | 0.00 | 100 | 1014.4 |
| 20260906115451 | 55 | 0 | 0.0 | 0.0 | 0.00 | 0.08 | 0.00 | 100 | 1014.5 |
| 20260906115046 | 55 | 0 | 0.0 | 0.0 | 0.00 | 0.08 | 0.00 | 100 | 1014.4 |
| 20260906114934 | 55 | 0 | 0.0 | 0.0 | 0.00 | 0.08 | 0.00 | 100 | 1014.4 |
| 20260906114539 | 55 | 0 | 0.0 | 0.0 | 0.00 | 0.08 | 0.00 | 100 | 1014.4 |
| 20260906114417 | 55 | 0 | 0.0 | 0.0 | 0.00 | 0.08 | 0.00 | 100 | 1014.4 |
| 20260906114032 | 55 | 0 | 0.0 | 0.0 | 0.00 | 0.08 | 0.00 | 100 | 1014.3 |
| 20260906113900 | 55 | 0 | 0.0 | 0.0 | 0.00 | 0.08 | 0.00 | 100 | 1014.3 |
| 20260906113525 | 55 | 0 | 0.0 | 0.0 | 0.00 | 0.08 | 0.00 | 100 | 1014.3 |
| 20260906113018 | 55 | 0 | 0.0 | 0.0 | 0.00 | 0.08 | 0.00 | 100 | 1014.4 |
| 20260906112826 | 55 | 0 | 0.0 | 0.0 | 0.00 | 0.08 | 0.00 | 100 | 1014.5 |
| 20260906112511 | 55 | 0 | 0.0 | 0.0 | 0.00 | 0.08 | 0.00 | 100 | 1014.5 |
| 20260906112309 | 55 | 0 | 0.0 | 0.0 | 0.00 | 0.08 | 0.00 | 100 | 1014.4 |
| 20260906111457 | 55 | 0 | 0.0 | 0.0 | 0.00 | 0.08 | 0.00 | 100 | 1014.6 |
| 20260906111235 | 54 | 0 | 0.0 | 0.0 | 0.00 | 0.08 | 0.00 | 100 | 1014.6 |
| 20260906110950 | 54 | 0 | 0.0 | 0.0 | 0.00 | 0.08 | 0.00 | 100 | 1014.6 |
| 20260906110718 | 55 | 0 | 0.0 | 0.0 | 0.00 | 0.08 | 0.00 | 100 | 1014.5 |
| 20260906110443 | 55 | 0 | 0.0 | 0.0 | 0.00 | 0.08 | 0.00 | 100 | 1014.5 |
| 20260906110201 | 55 | 0 | 0.0 | 0.0 | 0.00 | 0.08 | 0.00 | 100 | 1014.5 |
| 20260906105936 | 55 | 0 | 0.0 | 0.0 | 0.00 | 0.08 | 0.00 | 100 | 1014.5 |
| 20260906105644 | 55 | 0 | 0.0 | 0.0 | 0.00 | 0.08 | 0.00 | 100 | 1014.5 |
| 20260906105429 | 54 | 0 | 0.0 | 0.0 | 0.00 | 0.08 | 0.00 | 100 | 1014.5 |
| 20260906105127 | 54 | 0 | 0.0 | 0.0 | 0.00 | 0.08 | 0.00 | 100 | 1014.5 |
| 20260906104922 | 54 | 0 | 0.0 | 0.0 | 0.00 | 0.08 | 0.00 | 100 | 1014.5 |
| 20260906104610 | 54 | 0 | 0.0 | 0.0 | 0.00 | 0.08 | 0.00 | 100 | 1014.5 |
| 20260906104415 | 54 | 0 | 0.0 | 0.0 | 0.00 | 0.08 | 0.00 | 100 | 1014.5 |
| 20260906104053 | 54 | 0 | 0.0 | 0.0 | 0.00 | 0.08 | 0.00 | 100 | 1014.5 |
| 20260906103909 | 54 | 0 | 0.0 | 0.0 | 0.00 | 0.08 | 0.00 | 100 | 1014.5 |
| 20260906103536 | 54 | 0 | 0.0 | 0.0 | 0.00 | 0.08 | 0.00 | 100 | 1014.4 |
| 20260906103401 | 54 | 0 | 0.0 | 0.0 | 0.00 | 0.08 | 0.00 | 100 | 1014.4 |
| 20260906103019 | 54 | 0 | 0.0 | 0.0 | 0.00 | 0.08 | 0.00 | 100 | 1014.4 |
| 20260906102854 | 54 | 0 | 0.0 | 0.0 | 0.00 | 0.08 | 0.00 | 100 | 1014.3 |
| 20260906102502 | 54 | 0 | 0.0 | 0.0 | 0.00 | 0.08 | 0.00 | 100 | 1014.4 |
| 20260906101945 | 54 | 0 | 0.0 | 0.0 | 0.00 | 0.08 | 0.00 | 100 | 1014.4 |
| 20260906101428 | 54 | 0 | 0.0 | 0.0 | 0.00 | 0.08 | 0.00 | 100 | 1014.4 |
| 20260906101333 | 54 | 0 | 0.0 | 0.0 | 0.00 | 0.08 | 0.00 | 100 | 1014.4 |
| 20260906100911 | 54 | 0 | 0.0 | 0.0 | 0.00 | 0.08 | 0.00 | 100 | 1014.4 |
| 20260906100354 | 54 | 0 | 0.0 | 0.0 | 0.00 | 0.08 | 0.00 | 100 | 1014.4 |
| 20260906100319 | 54 | 0 | 0.0 | 0.0 | 0.00 | 0.08 | 0.00 | 100 | 1014.4 |
| 20260906095837 | 54 | 0 | 0.0 | 0.0 | 0.00 | 0.08 | 0.00 | 100 | 1014.4 |
| 20260906095812 | 54 | 0 | 0.0 | 0.0 | 0.00 | 0.08 | 0.00 | 100 | 1014.5 |
| 20260906095306 | 54 | 0 | 0.0 | 0.0 | 0.00 | 0.08 | 0.00 | 100 | 1014.4 |
| 20260906094758 | 53 | 0 | 0.0 | 0.0 | 0.00 | 0.08 | 0.00 | 100 | 1014.5 |
| 20260906094246 | 53 | 0 | 0.0 | 0.0 | 0.00 | 0.08 | 0.00 | 100 | 1014.4 |
| 20260906093744 | 53 | 0 | 0.0 | 0.0 | 0.00 | 0.08 | 0.00 | 100 | 1014.4 |
| 20260906093729 | 53 | 0 | 0.0 | 0.0 | 0.00 | 0.08 | 0.00 | 100 | 1014.4 |
| 20260906093237 | 53 | 0 | 0.0 | 0.0 | 0.00 | 0.08 | 0.00 | 100 | 1014.3 |
| 20260906093212 | 53 | 0 | 0.0 | 0.0 | 0.00 | 0.08 | 0.00 | 100 | 1014.3 |
| 20260906092730 | 53 | 0 | 0.0 | 0.0 | 0.00 | 0.08 | 0.00 | 100 | 1014.3 |
| 20260906092655 | 53 | 0 | 0.0 | 0.0 | 0.00 | 0.08 | 0.00 | 100 | 1014.3 |
| 20260906092223 | 53 | 0 | 0.0 | 0.0 | 0.00 | 0.08 | 0.00 | 100 | 1014.3 |
| 20260906092138 | 53 | 0 | 0.0 | 0.0 | 0.00 | 0.08 | 0.00 | 100 | 1014.3 |
| 20260906091716 | 53 | 0 | 0.0 | 0.0 | 0.00 | 0.08 | 0.00 | 100 | 1014.3 |
| 20260906091621 | 53 | 0 | 0.0 | 0.0 | 0.00 | 0.08 | 0.00 | 100 | 1014.3 |
| 20260906091209 | 53 | 0 | 0.0 | 0.0 | 0.00 | 0.08 | 0.00 | 100 | 1014.3 |
| 20260906091104 | 53 | 0 | 0.0 | 0.0 | 0.00 | 0.08 | 0.00 | 100 | 1014.3 |
| 20260906090702 | 53 | 0 | 0.0 | 0.0 | 0.00 | 0.08 | 0.00 | 100 | 1014.2 |
| 20260906090547 | 53 | 0 | 0.0 | 0.0 | 0.00 | 0.08 | 0.00 | 100 | 1014.2 |
| 20260906090155 | 53 | 0 | 0.0 | 0.0 | 0.00 | 0.08 | 0.00 | 100 | 1014.2 |
| 20260906090030 | 53 | 0 | 0.0 | 0.0 | 0.00 | 0.08 | 0.00 | 100 | 1014.2 |
| 20260906085648 | 53 | 0 | 0.0 | 0.0 | 0.00 | 0.08 | 0.00 | 100 | 1014.2 |
| 20260906085513 | 53 | 0 | 0.0 | 0.0 | 0.00 | 0.08 | 0.00 | 100 | 1014.2 |
| 20260906085141 | 53 | 0 | 0.0 | 0.0 | 0.00 | 0.08 | 0.00 | 100 | 1014.2 |
| 20260906084956 | 53 | 0 | 0.0 | 0.0 | 0.00 | 0.08 | 0.00 | 100 | 1014.2 |
| 20260906084634 | 53 | 0 | 0.0 | 0.0 | 0.00 | 0.08 | 0.00 | 100 | 1014.2 |
| 20260906084439 | 53 | 0 | 0.0 | 0.0 | 0.00 | 0.08 | 0.00 | 100 | 1014.1 |
| 20260906084127 | 53 | 0 | 0.0 | 0.0 | 0.00 | 0.08 | 0.00 | 100 | 1014.3 |
| 20260906083922 | 53 | 0 | 0.0 | 0.0 | 0.00 | 0.08 | 0.00 | 100 | 1014.3 |
| 20260906083620 | 53 | 0 | 0.0 | 0.0 | 0.00 | 0.08 | 0.00 | 100 | 1014.4 |
| 20260906083405 | 53 | 0 | 0.0 | 0.0 | 0.00 | 0.08 | 0.00 | 100 | 1014.4 |
| 20260906083114 | 53 | 0 | 0.0 | 0.0 | 0.00 | 0.08 | 0.00 | 100 | 1014.3 |
| 20260906082848 | 53 | 0 | 0.0 | 0.0 | 0.00 | 0.08 | 0.00 | 100 | 1014.4 |
| 20260906082606 | 54 | 0 | 0.0 | 0.0 | 0.00 | 0.08 | 0.00 | 100 | 1014.4 |
| 20260906082331 | 54 | 0 | 0.0 | 0.0 | 0.00 | 0.08 | 0.00 | 100 | 1014.4 |
| 20260906081817 | 53 | 0 | 0.0 | 0.0 | 0.00 | 0.08 | 0.00 | 100 | 1014.5 |
| 20260906081257 | 53 | 0 | 0.0 | 0.0 | 0.00 | 0.08 | 0.00 | 100 | 1014.4 |
| 20260906081045 | 53 | 0 | 0.0 | 0.0 | 0.00 | 0.08 | 0.00 | 100 | 1014.5 |
| 20260906080740 | 53 | 0 | 0.0 | 0.0 | 0.00 | 0.08 | 0.00 | 100 | 1014.5 |
| 20260906080538 | 53 | 0 | 0.0 | 0.0 | 0.00 | 0.08 | 0.00 | 100 | 1014.5 |
| 20260906080223 | 53 | 0 | 0.0 | 0.0 | 0.00 | 0.08 | 0.00 | 100 | 1014.5 |
| 20260906080031 | 53 | 0 | 0.0 | 0.0 | 0.00 | 0.08 | 0.00 | 100 | 1014.4 |
| 20260906075706 | 53 | 0 | 0.0 | 0.0 | 0.00 | 0.08 | 0.00 | 100 | 1014.4 |
| 20260906075524 | 53 | 0 | 0.0 | 0.0 | 0.00 | 0.08 | 0.00 | 100 | 1014.4 |
| 20260906075018 | 53 | 0 | 0.0 | 0.0 | 0.00 | 0.08 | 0.00 | 100 | 1014.4 |
| 20260906074632 | 53 | 0 | 0.0 | 0.0 | 0.00 | 0.08 | 0.00 | 100 | 1014.3 |
| 20260906074510 | 53 | 0 | 0.0 | 0.0 | 0.00 | 0.08 | 0.00 | 100 | 1014.4 |
| 20260906074115 | 53 | 0 | 0.0 | 0.0 | 0.00 | 0.08 | 0.00 | 100 | 1014.3 |
| 20260906074003 | 53 | 0 | 0.0 | 0.0 | 0.00 | 0.08 | 0.00 | 100 | 1014.4 |
| 20260906073558 | 53 | 0 | 0.0 | 0.0 | 0.00 | 0.08 | 0.00 | 100 | 1014.3 |
| 20260906073456 | 53 | 0 | 0.0 | 0.0 | 0.00 | 0.08 | 0.00 | 100 | 1014.3 |
| 20260906073041 | 53 | 0 | 0.0 | 0.0 | 0.00 | 0.08 | 0.00 | 100 | 1014.4 |
| 20260906072524 | 53 | 0 | 0.0 | 0.0 | 0.00 | 0.08 | 0.00 | 100 | 1014.3 |
| 20260906072442 | 53 | 0 | 0.0 | 0.0 | 0.00 | 0.08 | 0.00 | 100 | 1014.3 |
| 20260906072007 | 53 | 0 | 0.0 | 0.0 | 0.00 | 0.08 | 0.00 | 100 | 1014.3 |
| 20260906071935 | 53 | 0 | 0.0 | 0.0 | 0.00 | 0.08 | 0.00 | 100 | 1014.3 |
| 20260906071428 | 53 | 0 | 0.0 | 0.0 | 0.00 | 0.08 | 0.00 | 100 | 1014.3 |
| 20260906070921 | 54 | 0 | 0.0 | 0.0 | 0.00 | 0.08 | 0.00 | 99 | 1014.3 |
| 20260906070414 | 54 | 0 | 0.0 | 0.0 | 0.00 | 0.08 | 0.00 | 99 | 1014.3 |
| 20260906065907 | 54 | 0 | 0.0 | 0.0 | 0.00 | 0.08 | 0.00 | 99 | 1014.3 |
| 20260906065859 | 54 | 0 | 0.0 | 0.0 | 0.00 | 0.08 | 0.00 | 99 | 1014.3 |
| 20260906065400 | 54 | 0 | 0.0 | 0.0 | 0.00 | 0.08 | 0.00 | 99 | 1014.3 |
| 20260906064853 | 54 | 0 | 0.0 | 0.0 | 0.00 | 0.08 | 0.00 | 99 | 1014.3 |
| 20260906064825 | 54 | 0 | 0.0 | 0.0 | 0.00 | 0.08 | 0.00 | 99 | 1014.3 |
| 20260906064346 | 54 | 0 | 0.0 | 0.0 | 0.00 | 0.08 | 0.00 | 99 | 1014.3 |
| 20260906063751 | 54 | 0 | 0.0 | 0.0 | 0.00 | 0.08 | 0.00 | 99 | 1014.3 |
| 20260906063332 | 54 | 0 | 0.0 | 0.0 | 0.00 | 0.08 | 0.00 | 99 | 1014.5 |
| 20260906063235 | 54 | 0 | 0.0 | 0.0 | 0.00 | 0.08 | 0.00 | 99 | 1014.5 |
| 20260906062825 | 54 | 0 | 0.0 | 0.0 | 0.00 | 0.08 | 0.00 | 99 | 1014.4 |
| 20260906062717 | 54 | 0 | 0.0 | 0.0 | 0.00 | 0.08 | 0.00 | 99 | 1014.4 |
| 20260906062318 | 54 | 0 | 0.0 | 0.0 | 0.00 | 0.08 | 0.00 | 99 | 1014.4 |
| 20260906062200 | 54 | 0 | 0.0 | 0.0 | 0.00 | 0.08 | 0.00 | 99 | 1014.4 |
| 20260906061811 | 54 | 0 | 0.0 | 0.0 | 0.00 | 0.08 | 0.00 | 99 | 1014.4 |
| 20260906061643 | 54 | 0 | 0.0 | 0.0 | 0.00 | 0.08 | 0.00 | 99 | 1014.4 |
| 20260906061304 | 54 | 0 | 0.0 | 0.0 | 0.00 | 0.08 | 0.00 | 99 | 1014.4 |
| 20260906061126 | 54 | 0 | 0.0 | 0.0 | 0.00 | 0.08 | 0.00 | 99 | 1014.5 |
| 20260906060757 | 54 | 0 | 0.0 | 0.0 | 0.00 | 0.08 | 0.00 | 98 | 1014.5 |
| 20260906060609 | 54 | 0 | 0.0 | 0.0 | 0.00 | 0.08 | 0.00 | 98 | 1014.5 |
| 20260906060250 | 55 | 0 | 0.0 | 0.0 | 0.00 | 0.08 | 0.00 | 98 | 1014.5 |
| 20260906060053 | 55 | 0 | 0.0 | 0.0 | 0.00 | 0.08 | 0.00 | 98 | 1014.6 |
| 20260906055743 | 55 | 0 | 0.0 | 0.0 | 0.00 | 0.08 | 0.00 | 98 | 1014.6 |
| 20260906055535 | 55 | 0 | 0.0 | 0.0 | 0.00 | 0.08 | 0.00 | 98 | 1014.6 |
| 20260906055236 | 55 | 0 | 0.0 | 0.0 | 0.00 | 0.08 | 0.00 | 98 | 1014.6 |
| 20260906055018 | 55 | 0 | 0.0 | 0.0 | 0.00 | 0.08 | 0.00 | 98 | 1014.6 |
| 20260906054729 | 55 | 0 | 0.0 | 0.0 | 0.00 | 0.08 | 0.00 | 98 | 1014.6 |
| 20260906054501 | 55 | 0 | 0.0 | 0.0 | 0.00 | 0.08 | 0.00 | 98 | 1014.6 |
| 20260906054222 | 55 | 0 | 0.0 | 0.0 | 0.00 | 0.08 | 0.00 | 98 | 1014.5 |
| 20260906053944 | 55 | 0 | 0.0 | 0.0 | 0.00 | 0.08 | 0.00 | 98 | 1014.7 |
| 20260906053715 | 55 | 0 | 0.0 | 0.0 | 0.00 | 0.08 | 0.00 | 98 | 1014.7 |
| 20260906053427 | 55 | 0 | 0.0 | 0.0 | 0.00 | 0.08 | 0.00 | 98 | 1014.8 |
| 20260906053208 | 55 | 0 | 0.0 | 0.0 | 0.00 | 0.08 | 0.00 | 98 | 1014.8 |
| 20260906052910 | 55 | 0 | 0.0 | 0.0 | 0.00 | 0.08 | 0.00 | 98 | 1014.8 |
| 20260906052701 | 55 | 0 | 0.0 | 0.0 | 0.00 | 0.08 | 0.00 | 98 | 1014.8 |
| 20260906052353 | 55 | 0 | 0.0 | 0.0 | 0.00 | 0.08 | 0.00 | 98 | 1014.8 |
| 20260906052154 | 55 | 0 | 0.0 | 0.0 | 0.00 | 0.08 | 0.00 | 98 | 1014.8 |
| 20260906051836 | 55 | 0 | 0.0 | 0.0 | 0.00 | 0.08 | 0.00 | 98 | 1014.8 |
| 20260906051647 | 55 | 0 | 0.0 | 0.0 | 0.00 | 0.08 | 0.00 | 98 | 1014.9 |
| 20260906051320 | 55 | 0 | 0.0 | 0.0 | 0.00 | 0.08 | 0.00 | 98 | 1014.7 |
| 20260906051140 | 55 | 0 | 0.0 | 0.0 | 0.00 | 0.08 | 0.00 | 97 | 1014.7 |
| 20260906050802 | 56 | 0 | 0.0 | 0.0 | 0.00 | 0.08 | 0.00 | 97 | 1014.7 |
| 20260906050633 | 56 | 0 | 0.0 | 0.0 | 0.00 | 0.08 | 0.00 | 97 | 1014.7 |
| 20260906050245 | 56 | 0 | 0.0 | 0.0 | 0.00 | 0.08 | 0.00 | 97 | 1014.7 |
| 20260906050128 | 56 | 0 | 0.0 | 0.0 | 0.00 | 0.08 | 0.00 | 97 | 1014.7 |
| 20260906045728 | 56 | 0 | 0.0 | 0.0 | 0.00 | 0.08 | 0.00 | 97 | 1014.6 |
| 20260906045619 | 56 | 0 | 0.0 | 0.0 | 0.00 | 0.08 | 0.00 | 97 | 1014.6 |
| 20260906045211 | 56 | 0 | 0.0 | 0.0 | 0.00 | 0.08 | 0.00 | 97 | 1014.6 |
| 20260906045112 | 56 | 0 | 0.0 | 0.0 | 0.00 | 0.08 | 0.00 | 97 | 1014.6 |
| 20260906044654 | 56 | 0 | 0.0 | 0.0 | 0.00 | 0.08 | 0.00 | 97 | 1014.5 |
| 20260906044605 | 56 | 0 | 0.0 | 0.0 | 0.00 | 0.08 | 0.00 | 97 | 1014.6 |
| 20260906044137 | 56 | 0 | 0.0 | 0.0 | 0.00 | 0.08 | 0.00 | 97 | 1014.6 |
| 20260906044058 | 56 | 0 | 0.0 | 0.0 | 0.00 | 0.08 | 0.00 | 97 | 1014.6 |
| 20260906043620 | 56 | 0 | 0.0 | 0.0 | 0.00 | 0.08 | 0.00 | 96 | 1014.7 |
| 20260906043551 | 56 | 0 | 0.0 | 0.0 | 0.00 | 0.08 | 0.00 | 96 | 1014.7 |
| 20260906043103 | 56 | 0 | 0.0 | 0.0 | 0.00 | 0.08 | 0.00 | 96 | 1014.7 |
| 20260906043044 | 56 | 0 | 0.0 | 0.0 | 0.00 | 0.08 | 0.00 | 96 | 1014.7 |
| 20260906042546 | 56 | 0 | 0.0 | 0.0 | 0.00 | 0.08 | 0.00 | 96 | 1014.6 |
| 20260906042028 | 56 | 0 | 0.0 | 0.0 | 0.00 | 0.08 | 0.00 | 96 | 1014.6 |
| 20260906041523 | 57 | 0 | 0.0 | 0.0 | 0.00 | 0.08 | 0.00 | 96 | 1014.6 |
| 20260906041512 | 57 | 0 | 0.0 | 0.0 | 0.00 | 0.08 | 0.00 | 96 | 1014.6 |
| 20260906041016 | 57 | 0 | 0.0 | 0.0 | 0.00 | 0.08 | 0.00 | 96 | 1014.7 |
| 20260906040954 | 57 | 0 | 0.0 | 0.0 | 0.00 | 0.08 | 0.00 | 96 | 1014.7 |
| 20260906040509 | 57 | 0 | 0.0 | 0.0 | 0.00 | 0.08 | 0.00 | 95 | 1014.6 |
| 20260906040437 | 57 | 0 | 0.0 | 0.0 | 0.00 | 0.08 | 0.00 | 95 | 1014.6 |
| 20260906040002 | 57 | 0 | 0.0 | 0.0 | 0.00 | 0.08 | 0.00 | 95 | 1014.6 |
| 20260906035921 | 57 | 0 | 0.0 | 0.0 | 0.00 | 0.08 | 0.00 | 95 | 1014.6 |
| 20260906035455 | 57 | 0 | 0.0 | 0.0 | 0.00 | 0.08 | 0.00 | 95 | 1014.5 |
| 20260906034948 | 57 | 0 | 0.0 | 0.0 | 0.00 | 0.08 | 0.00 | 95 | 1014.7 |
| 20260906034846 | 57 | 0 | 0.0 | 0.0 | 0.00 | 0.08 | 0.00 | 95 | 1014.7 |
| 20260906034441 | 57 | 0 | 0.0 | 0.0 | 0.00 | 0.08 | 0.00 | 95 | 1014.6 |
| 20260906034332 | 57 | 0 | 0.0 | 0.0 | 0.00 | 0.08 | 0.00 | 95 | 1014.6 |
| 20260906033934 | 57 | 0 | 0.0 | 0.0 | 0.00 | 0.08 | 0.00 | 94 | 1014.5 |
| 20260906033812 | 58 | 0 | 0.0 | 0.0 | 0.00 | 0.08 | 0.00 | 94 | 1014.5 |
| 20260906033426 | 58 | 0 | 0.0 | 0.0 | 0.00 | 0.08 | 0.00 | 94 | 1014.4 |
| 20260906033255 | 58 | 0 | 0.0 | 0.0 | 0.00 | 0.08 | 0.00 | 94 | 1014.5 |
| 20260906032920 | 58 | 0 | 0.0 | 0.0 | 0.00 | 0.08 | 0.00 | 94 | 1014.5 |
| 20260906032738 | 58 | 0 | 0.0 | 0.0 | 0.00 | 0.08 | 0.00 | 94 | 1014.5 |
| 20260906032412 | 58 | 0 | 0.0 | 0.0 | 0.00 | 0.08 | 0.00 | 94 | 1014.5 |
| 20260906032221 | 58 | 0 | 0.0 | 0.0 | 0.00 | 0.08 | 0.00 | 94 | 1014.5 |
| 20260906031905 | 58 | 0 | 0.0 | 0.0 | 0.00 | 0.08 | 0.00 | 94 | 1014.4 |
| 20260906031704 | 58 | 0 | 0.0 | 0.0 | 0.00 | 0.08 | 0.00 | 93 | 1014.4 |
| 20260906031358 | 58 | 0 | 0.0 | 0.0 | 0.00 | 0.08 | 0.00 | 93 | 1014.4 |
| 20260906031147 | 58 | 0 | 0.0 | 0.0 | 0.00 | 0.08 | 0.00 | 93 | 1014.4 |
| 20260906030852 | 58 | 0 | 0.0 | 0.0 | 0.00 | 0.08 | 0.00 | 93 | 1014.3 |
| 20260906030630 | 58 | 0 | 0.0 | 0.0 | 0.00 | 0.08 | 0.00 | 93 | 1014.3 |
| 20260906030346 | 59 | 0 | 0.0 | 0.0 | 0.00 | 0.08 | 0.00 | 93 | 1014.4 |
| 20260906030113 | 59 | 0 | 0.0 | 0.0 | 0.00 | 0.08 | 0.00 | 92 | 1014.3 |
| 20260906025838 | 59 | 0 | 0.0 | 0.0 | 0.00 | 0.08 | 0.00 | 92 | 1014.4 |
| 20260906025556 | 59 | 0 | 0.0 | 0.0 | 0.00 | 0.08 | 0.00 | 92 | 1014.4 |
| 20260906025331 | 59 | 0 | 0.0 | 0.0 | 0.00 | 0.08 | 0.00 | 92 | 1014.4 |
| 20260906025039 | 59 | 0 | 0.0 | 0.0 | 0.00 | 0.08 | 0.00 | 92 | 1014.3 |
| 20260906024823 | 59 | 0 | 0.0 | 0.0 | 0.00 | 0.08 | 0.00 | 92 | 1014.4 |
| 20260906024522 | 59 | 0 | 0.0 | 0.0 | 0.00 | 0.08 | 0.00 | 91 | 1014.4 |
| 20260906024317 | 59 | 0 | 0.0 | 0.0 | 0.00 | 0.08 | 0.00 | 91 | 1014.4 |
| 20260906023809 | 59 | 0 | 0.0 | 1.0 | 0.00 | 0.08 | 0.00 | 91 | 1014.4 |
| 20260906023448 | 59 | 0 | 0.0 | 1.0 | 0.00 | 0.08 | 0.00 | 91 | 1014.5 |
| 20260906023303 | 59 | 0 | 0.0 | 1.0 | 0.00 | 0.08 | 0.00 | 91 | 1014.5 |
| 20260906022931 | 60 | 0 | 0.0 | 1.0 | 0.00 | 0.08 | 0.00 | 90 | 1014.5 |
| 20260906022756 | 59 | 0 | 0.0 | 1.0 | 0.00 | 0.08 | 0.00 | 90 | 1014.5 |
| 20260906022414 | 60 | 0 | 0.0 | 1.0 | 0.00 | 0.08 | 0.00 | 90 | 1014.6 |
| 20260906022248 | 60 | 341 | 0.0 | 1.0 | 0.00 | 0.08 | 0.00 | 90 | 1014.6 |
| 20260906021857 | 60 | 0 | 0.0 | 0.0 | 0.00 | 0.08 | 0.00 | 90 | 1014.7 |
| 20260906021741 | 60 | 0 | 0.0 | 0.0 | 0.00 | 0.08 | 0.00 | 90 | 1014.7 |
| 20260906021235 | 60 | 0 | 0.0 | 0.0 | 0.00 | 0.08 | 0.00 | 89 | 1014.7 |
| 20260906020823 | 60 | 0 | 0.0 | 0.0 | 0.00 | 0.08 | 0.00 | 89 | 1014.7 |
| 20260906020727 | 60 | 0 | 0.0 | 0.0 | 0.00 | 0.09 | 0.00 | 89 | 1014.7 |
| 20260906020306 | 60 | 0 | 0.0 | 0.0 | 0.00 | 0.09 | 0.00 | 89 | 1014.6 |
| 20260906020220 | 61 | 0 | 0.0 | 0.0 | 0.00 | 0.09 | 0.00 | 89 | 1014.7 |
| 20260906015749 | 61 | 0 | 0.0 | 0.0 | 0.00 | 0.09 | 0.00 | 88 | 1014.7 |
| 20260906015713 | 61 | 0 | 0.0 | 0.0 | 0.00 | 0.09 | 0.00 | 88 | 1014.7 |
| 20260906015206 | 61 | 0 | 0.0 | 0.0 | 0.00 | 0.09 | 0.00 | 88 | 1014.8 |
| 20260906014715 | 61 | 0 | 0.0 | 0.0 | 0.00 | 0.09 | 0.00 | 87 | 1014.8 |
| 20260906014659 | 61 | 0 | 0.0 | 0.0 | 0.00 | 0.09 | 0.00 | 87 | 1014.8 |
| 20260906014152 | 61 | 0 | 0.0 | 0.0 | 0.00 | 0.09 | 0.00 | 87 | 1014.9 |
| 20260906013641 | 61 | 0 | 0.0 | 0.0 | 0.00 | 0.09 | 0.00 | 86 | 1014.7 |
| 20260906013138 | 62 | 0 | 0.0 | 0.0 | 0.00 | 0.09 | 0.00 | 86 | 1014.9 |
| 20260906013126 | 62 | 0 | 0.0 | 0.0 | 0.00 | 0.09 | 0.00 | 86 | 1014.9 |
| 20260906012631 | 62 | 0 | 0.0 | 0.0 | 0.00 | 0.09 | 0.00 | 86 | 1014.9 |
| 20260906012607 | 62 | 0 | 0.0 | 0.0 | 0.00 | 0.09 | 0.00 | 86 | 1014.9 |
| 20260906012125 | 62 | 0 | 0.0 | 0.0 | 0.00 | 0.09 | 0.00 | 86 | 1014.9 |
| 20260906012050 | 62 | 0 | 0.0 | 0.0 | 0.00 | 0.09 | 0.00 | 86 | 1014.9 |
| 20260906011617 | 62 | 0 | 0.0 | 0.0 | 0.00 | 0.09 | 0.00 | 86 | 1014.9 |
| 20260906011533 | 62 | 0 | 0.0 | 0.0 | 0.00 | 0.09 | 0.00 | 86 | 1014.9 |
| 20260906011110 | 62 | 0 | 0.0 | 0.0 | 0.00 | 0.09 | 0.00 | 86 | 1014.9 |
| 20260906011018 | 62 | 0 | 0.0 | 0.0 | 0.00 | 0.09 | 0.00 | 86 | 1014.9 |
| 20260906010603 | 62 | 0 | 0.0 | 6.0 | 0.00 | 0.12 | 0.00 | 87 | 1014.9 |
| 20260906010459 | 62 | 0 | 0.0 | 6.0 | 0.00 | 0.12 | 0.00 | 87 | 1014.9 |
| 20260906010056 | 62 | 0 | 0.0 | 6.0 | 0.00 | 0.12 | 0.00 | 86 | 1014.8 |
| 20260906005942 | 62 | 0 | 0.0 | 6.0 | 0.00 | 0.12 | 0.00 | 86 | 1014.8 |
| 20260906005549 | 62 | 0 | 0.0 | 6.0 | 0.00 | 0.12 | 0.00 | 86 | 1014.8 |
| 20260906005425 | 62 | 0 | 0.0 | 6.0 | 0.00 | 0.12 | 0.00 | 86 | 1014.8 |
| 20260906005042 | 62 | 331 | 2.0 | 6.0 | 0.00 | 0.12 | 0.00 | 85 | 1014.8 |
| 20260906004909 | 62 | 331 | 2.0 | 6.0 | 0.00 | 0.12 | 0.00 | 85 | 1014.8 |
| 20260906004536 | 62 | 257 | 3.0 | 6.0 | 0.00 | 0.12 | 0.00 | 85 | 1014.8 |
| 20260906004028 | 62 | 0 | 0.0 | 4.0 | 0.00 | 0.12 | 0.00 | 85 | 1014.7 |
| 20260906003834 | 62 | 0 | 0.0 | 4.0 | 0.00 | 0.12 | 0.00 | 84 | 1014.8 |
| 20260906003522 | 62 | 303 | 2.0 | 4.0 | 0.00 | 0.12 | 0.00 | 84 | 1014.7 |
| 20260906003317 | 62 | 305 | 4.0 | 4.0 | 0.00 | 0.12 | 0.00 | 84 | 1014.7 |
| 20260906003016 | 63 | 357 | 1.0 | 5.0 | 0.00 | 0.12 | 0.00 | 83 | 1014.8 |
| 20260906002800 | 63 | 343 | 3.0 | 5.0 | 0.00 | 0.12 | 0.00 | 83 | 1014.8 |
| 20260906002507 | 63 | 0 | 0.0 | 5.0 | 0.00 | 0.12 | 0.00 | 82 | 1014.8 |
| 20260906002243 | 63 | 0 | 0.0 | 5.0 | 0.00 | 0.12 | 0.00 | 82 | 1014.8 |
| 20260906002000 | 63 | 0 | 0.0 | 5.0 | 0.00 | 0.12 | 0.00 | 82 | 1014.8 |
| 20260906001726 | 63 | 315 | 2.0 | 5.0 | 0.00 | 0.12 | 0.00 | 81 | 1014.8 |
| 20260906001454 | 63 | 315 | 2.0 | 5.0 | 0.00 | 0.12 | 0.00 | 80 | 1014.8 |
| 20260906001209 | 63 | 0 | 0.0 | 0.0 | 0.00 | 0.12 | 0.00 | 80 | 1014.8 |
| 20260906000947 | 63 | 0 | 0.0 | 0.0 | 0.00 | 0.12 | 0.00 | 79 | 1014.9 |
| 20260906000652 | 63 | 0 | 0.0 | 0.0 | 0.00 | 0.15 | 0.00 | 79 | 1014.9 |
| 20260906000440 | 63 | 0 | 0.0 | 0.0 | 0.00 | 0.15 | 0.00 | 78 | 1014.8 |
| 20260906000135 | 64 | 0 | 0.0 | 0.0 | 0.00 | 0.15 | 0.12 | 77 | 1014.8 |
| 20260905235932 | 64 | 0 | 0.0 | 0.0 | 0.00 | 0.15 | 0.12 | 76 | 1014.9 |
| 20260905235618 | 64 | 0 | 0.0 | 0.0 | 0.00 | 0.15 | 0.12 | 76 | 1014.8 |
| 20260905235425 | 64 | 0 | 0.0 | 0.0 | 0.00 | 0.15 | 0.12 | 75 | 1014.8 |
| 20260905235101 | 64 | 0 | 0.0 | 0.0 | 0.00 | 0.15 | 0.12 | 75 | 1014.8 |
| 20260905234918 | 64 | 0 | 0.0 | 0.0 | 0.00 | 0.15 | 0.12 | 75 | 1014.8 |
| 20260905234544 | 65 | 0 | 0.0 | 6.0 | 0.00 | 0.15 | 0.12 | 74 | 1014.8 |
| 20260905234411 | 65 | 0 | 0.0 | 6.0 | 0.00 | 0.15 | 0.12 | 74 | 1014.6 |
| 20260905234027 | 65 | 0 | 0.0 | 6.0 | 0.00 | 0.15 | 0.12 | 74 | 1014.6 |
| 20260905233904 | 66 | 0 | 0.0 | 6.0 | 0.00 | 0.15 | 0.12 | 74 | 1014.6 |
| 20260905233510 | 66 | 0 | 0.0 | 6.0 | 0.00 | 0.15 | 0.12 | 74 | 1014.6 |
| 20260905233358 | 66 | 0 | 0.0 | 6.0 | 0.00 | 0.15 | 0.12 | 74 | 1014.6 |
| 20260905232953 | 66 | 302 | 2.0 | 6.0 | 0.00 | 0.15 | 0.12 | 74 | 1014.7 |
| 20260905232850 | 66 | 302 | 2.0 | 6.0 | 0.00 | 0.15 | 0.12 | 75 | 1014.7 |
| 20260905232436 | 66 | 0 | 0.0 | 6.0 | 0.00 | 0.15 | 0.12 | 75 | 1014.7 |
| 20260905232344 | 66 | 0 | 0.0 | 6.0 | 0.00 | 0.15 | 0.12 | 75 | 1014.7 |
| 20260905231919 | 66 | 285 | 5.0 | 6.0 | 0.00 | 0.15 | 0.12 | 74 | 1014.8 |
| 20260905231836 | 66 | 0 | 0.0 | 6.0 | 0.00 | 0.15 | 0.12 | 75 | 1014.8 |
| 20260905231402 | 66 | 257 | 3.0 | 6.0 | 0.00 | 0.15 | 0.12 | 75 | 1014.9 |
| 20260905230845 | 66 | 271 | 1.0 | 4.0 | 0.00 | 0.15 | 0.12 | 77 | 1014.9 |
| 20260905230822 | 66 | 271 | 2.0 | 4.0 | 0.00 | 0.15 | 0.12 | 77 | 1015.0 |
| 20260905230329 | 66 | 264 | 1.0 | 3.0 | 0.00 | 0.16 | 0.12 | 78 | 1015.0 |
| 20260905230315 | 66 | 0 | 0.0 | 3.0 | 0.00 | 0.16 | 0.12 | 78 | 1015.0 |
| 20260905225812 | 66 | 0 | 0.0 | 3.0 | 0.00 | 0.16 | 0.12 | 78 | 1015.2 |
| 20260905225808 | 66 | 268 | 1.0 | 3.0 | 0.00 | 0.16 | 0.12 | 79 | 1015.1 |
| 20260905225305 | 66 | 282 | 2.0 | 7.0 | 0.00 | 0.16 | 0.12 | 78 | 1015.1 |
| 20260905225254 | 66 | 282 | 2.0 | 7.0 | 0.00 | 0.16 | 0.12 | 78 | 1015.1 |
| 20260905224754 | 66 | 284 | 2.0 | 7.0 | 0.00 | 0.16 | 0.12 | 79 | 1015.2 |
| 20260905224737 | 66 | 284 | 2.0 | 7.0 | 0.00 | 0.16 | 0.12 | 79 | 1015.2 |
| 20260905224247 | 66 | 343 | 3.0 | 7.0 | 0.00 | 0.16 | 0.12 | 79 | 1015.2 |
| 20260905224220 | 66 | 343 | 2.0 | 7.0 | 0.00 | 0.16 | 0.12 | 79 | 1015.3 |